Theta_e
290 282 278 279 281 281 283 283 286 285 286 284 284 283 282 282 284 285 285 286 285 284 281 282 282 282 286 288 290 288 286 285 286 287 287 286 286 288 288 288 289 289 290 293 295 295 294 295 294 294 293 293 294 294 294 294 293 293 295 295 295 296 294 295 295 294 294 294 293 291 291 291 291 292 293 294 292 291 291 291 291 292 293 292 290 293
289 283 282 279 281 283 285 284 284 285 284 286 282 283 283 282 283 285 287 285 284 287 282 281 284 287 288 288 288 287 286 285 286 286 286 287 285 287 288 289 289 290 289 293 296 296 296 296 295 294 293 295 295 295 294 294 295 294 293 294 296 295 294 294 296 296 295 292 293 293 294 292 291 292 293 293 292 292 294 293 292 292 292 292 291 293
283 281 285 283 284 284 285 284 284 285 283 281 284 282 284 282 283 284 285 284 285 286 284 282 285 287 288 287 287 286 285 284 286 287 286 286 287 288 288 288 289 290 292 293 292 292 292 294 295 294 294 293 292 292 292 293 293 293 293 294 295 295 295 295 295 294 294 293 294 293 293 292 292 291 292 292 294 293 293 292 292 292 292 292 291 291
284 284 284 285 286 286 284 282 283 280 281 281 281 284 283 282 282 281 282 284 286 285 282 282 283 285 285 285 284 287 285 288 289 286 286 287 288 288 288 289 290 289 290 291 291 292 290 292 293 294 294 296 294 294 294 294 294 294 296 294 294 296 295 295 296 298 296 295 294 294 293 293 293 295 294 294 294 294 293 295 293 293 293 292 292 291
286 286 286 286 284 286 285 281 282 285 285 281 281 279 281 282 281 281 280 283 284 285 284 283 280 281 283 283 284 285 284 288 287 287 289 288 288 288 289 290 289 290 290 290 292 292 292 293 294 295 295 294 294 295 295 295 295 297 296 296 295 296 296 295 297 296 296 296 295 294 294 293 294 293 292 292 293 293 293 295 293 295 292 292 292 292
283 286 286 285 283 284 286 282 279 278 284 279 279 282 283 280 282 279 280 282 277 284 283 282 277 282 281 281 284 284 284 284 284 287 288 287 287 288 290 289 288 290 289 290 290 290 291 291 291 292 292 293 294 295 296 296 296 294 296 295 295 294 294 295 295 295 295 295 295 294 293 292 291 291 290 291 291 292 293 293 292 293 292 292 292 291
283 284 285 285 282 281 281 282 282 280 280 282 284 282 282 281 281 280 281 281 278 279 283 279 280 279 277 286 285 284 284 285 285 284 286 286 287 287 288 289 289 290 291 290 290 291 291 292 291 292 292 293 293 295 296 294 295 295 295 295 294 295 295 295 294 294 297 294 293 293 294 293 293 291 291 290 291 291 293 293 292 293 293 292 292 292
285 285 284 280 282 281 284 284 284 280 280 282 283 281 282 282 281 281 279 278 281 278 279 276 280 278 277 280 283 282 284 284 283 285 285 287 287 287 288 288 288 290 289 290 291 291 291 290 291 293 293 291 294 294 293 294 294 295 296 295 295 294 296 295 294 294 295 295 293 293 292 294 292 292 294 293 293 292 293 293 294 293 292 292 291 292
286 286 283 284 279 279 282 282 283 282 283 283 283 283 282 282 282 280 280 279 279 280 278 275 278 280 275 277 282 283 287 286 288 287 289 287 286 286 287 288 288 289 289 290 291 292 293 293 293 292 292 293 292 292 293 294 294 295 294 295 294 295 294 295 293 295 293 296 295 294 293 293 295 294 294 294 294 294 293 292 293 292 292 292 292 291
284 285 285 285 284 282 282 282 281 284 282 284 283 283 281 281 280 282 279 281 277 278 279 280 277 279 275 276 282 283 284 286 287 290 289 290 290 288 288 288 288 288 288 289 291 291 291 292 292 291 291 292 293 292 292 293 292 293 292 294 295 296 295 294 293 293 294 293 295 294 293 293 294 293 293 291 292 293 291 292 293 292 292 293 293 293
286 289 289 284 283 284 282 282 281 283 284 284 282 282 281 280 278 277 278 279 278 275 278 279 277 279 276 278 284 284 287 284 285 287 286 288 290 292 290 289 288 289 289 290 290 290 291 291 291 291 292 292 292 292 292 293 292 292 293 293 294 295 294 293 294 293 294 292 293 294 294 293 294 294 292 292 293 292 292 293 293 293 293 292 293 292
286 286 286 284 287 285 283 284 283 282 283 283 281 281 282 283 278 279 270 270 275 274 276 279 278 279 277 279 283 283 285 284 289 287 289 290 290 291 292 292 291 290 290 290 291 291 290 292 291 291 293 293 294 294 295 294 294 294 293 293 294 296 295 294 294 293 294 293 292 292 293 294 294 293 293 293 293 293 292 292 293 293 292 293 293 293
287 285 285 285 287 286 283 284 284 281 281 280 278 278 281 274 273 278 271 280 274 276 281 278 280 279 278 279 284 287 285 286 285 289 289 288 289 290 291 293 292 291 290 291 292 291 291 291 291 292 293 293 294 294 294 294 294 294 294 293 294 297 295 295 293 293 293 292 292 293 293 293 295 293 293 293 293 293 293 293 293 293 293 293 293 293
284 283 284 285 286 287 284 284 278 282 280 279 280 275 274 272 265 270 264 269 272 276 279 278 279 280 279 283 284 285 285 285 286 286 288 289 289 289 291 291 289 290 290 291 290 290 291 292 292 292 292 293 293 293 294 294 294 293 294 292 293 295 294 293 293 293 293 293 293 292 293 294 293 294 294 294 294 294 293 293 293 293 293 294 294 294
278 279 284 285 285 284 284 283 283 283 283 283 280 281 280 271 274 273 270 277 276 276 277 277 277 276 279 285 287 286 284 284 285 286 286 285 286 287 288 288 288 291 293 291 292 293 294 293 293 293 292 292 292 292 293 292 293 292 294 294 293 294 295 293 294 293 293 294 294 293 293 293 292 294 294 294 295 294 294 294 293 294 293 293 294 294
283 279 285 285 285 284 284 285 284 282 283 281 280 280 278 280 273 278 271 272 271 273 275 277 277 277 286 286 286 283 285 288 287 289 288 291 289 288 290 291 292 294 295 293 292 292 292 292 292 291 292 291 291 291 291 292 292 293 293 291 291 292 293 292 293 293 293 293 294 292 293 294 294 295 294 294 295 294 293 294 294 294 294 294 294 294
280 281 283 283 283 283 284 283 284 284 282 283 283 279 281 280 278 273 273 273 274 272 274 273 281 280 283 287 287 285 287 288 287 288 288 290 289 288 290 292 293 295 294 293 293 293 293 291 291 291 291 291 291 291 292 292 291 291 292 292 293 292 291 292 292 293 293 293 293 294 293 293 293 293 293 294 294 294 294 293 293 293 294 294 294 294
279 279 283 283 284 285 282 283 283 283 285 283 280 282 283 282 281 278 276 267 266 272 274 276 279 279 279 280 284 288 286 286 287 287 287 289 288 290 292 292 293 293 292 291 291 291 291 291 291 291 291 291 291 291 292 292 290 290 290 290 292 292 293 293 293 293 293 293 293 294 294 294 294 294 294 294 294 294 294 294 294 293 293 294 294 294
282 278 282 282 283 284 282 284 284 285 284 285 283 282 284 277 279 275 271 273 273 269 270 276 276 277 279 282 282 285 284 286 286 287 287 290 291 290 291 292 291 291 290 292 293 291 292 291 291 291 291 291 291 291 290 291 291 291 291 290 290 292 292 292 292 292 294 293 294 294 294 293 294 294 294 294 294 293 294 294 294 294 294 294 294 294
283 278 278 282 283 284 282 281 279 282 283 279 283 282 279 282 275 275 276 272 275 270 270 275 275 280 281 279 284 285 286 286 286 286 287 288 288 288 288 289 290 290 291 292 292 292 291 291 291 291 291 292 292 291 291 290 291 292 291 292 292 293 293 293 294 293 294 294 293 293 293 293 293 293 293 293 293 293 293 294 294 294 294 294 294 294
281 281 275 281 279 282 281 281 279 278 279 281 281 278 281 277 279 279 276 278 278 268 268 267 271 274 279 283 283 284 285 286 287 289 288 288 287 287 287 289 289 289 290 290 290 291 292 292 291 291 290 290 289 289 290 291 291 291 292 292 292 292 292 293 293 293 293 293 293 292 292 292 292 292 293 293 293 293 293 293 293 294 293 293 294 293
279 280 277 276 280 280 279 281 281 278 280 280 279 280 278 278 278 276 275 272 269 275 272 267 274 278 283 286 286 285 285 286 286 289 289 287 287 287 288 287 287 289 289 289 290 290 291 291 291 290 289 290 292 292 292 292 292 291 291 291 291 292 292 292 292 292 292 291 291 291 291 292 292 292 292 292 292 292 293 293 293 293 293 293 293 293
284 276 278 276 276 281 281 282 280 280 278 276 279 282 278 278 276 271 273 274 272 273 268 270 271 278 285 282 284 283 284 284 287 286 289 287 286 286 287 287 287 288 290 291 291 291 291 290 290 289 289 290 290 291 291 290 291 290 290 290 290 291 291 291 291 291 290 291 291 291 291 291 291 292 292 291 292 291 292 292 292 292 292 292 292 293
288 276 275 277 275 276 278 278 279 279 279 280 278 278 279 281 281 277 277 275 273 272 274 271 270 278 283 282 283 283 283 283 284 283 286 286 286 286 286 287 288 290 290 289 287 288 288 289 289 291 292 292 291 290 290 290 290 290 290 291 291 290 290 290 290 290 290 290 291 291 291 291 291 291 291 291 291 291 291 291 291 291 291 291 291 292
280 277 277 270 266 267 272 277 278 276 276 278 279 278 278 281 278 277 276 273 278 273 275 275 271 270 285 283 282 285 285 287 287 287 284 287 286 286 287 286 287 287 288 289 291 289 289 291 291 291 289 289 289 289 289 290 290 290 290 290 290 290 290 290 290 290 290 290 290 290 290 290 290 290 290 290 290 290 290 290 291 291 291 290 290 291
281 278 275 275 273 270 268 267 270 275 278 277 277 280 279 281 279 280 277 273 274 270 275 270 270 279 282 282 284 287 285 286 285 284 285 285 285 287 286 287 288 288 288 289 288 290 290 289 289 289 288 288 288 289 289 289 290 290 290 289 289 289 290 290 289 289 289 289 289 289 289 289 289 289 289 289 289 289 290 290 290 290 290 290 290 290
275 276 278 274 274 275 276 274 280 283 279 279 280 279 280 279 279 278 276 271 277 270 277 279 279 280 285 286 285 287 284 285 286 286 286 286 286 285 284 286 287 287 288 288 288 288 288 289 288 287 287 287 287 287 288 288 289 289 289 289 289 289 289 289 289 289 288 288 288 288 288 288 288 289 288 289 289 289 289 289 289 289 289 289 289 289
273 277 278 276 279 281 277 280 282 283 282 279 280 280 278 279 279 280 279 279 278 276 277 280 281 282 286 288 284 284 285 283 285 286 287 286 286 286 286 285 289 288 288 286 288 289 288 287 286 286 286 287 287 288 288 288 288 288 288 288 288 288 288 289 288 287 287 287 287 287 287 288 288 288 288 288 288 288 288 288 288 288 288 288 288 288
275 275 277 278 278 278 278 279 280 281 281 281 280 281 280 279 278 280 281 281 279 278 281 279 279 281 285 287 286 284 284 287 287 289 289 287 286 285 285 286 287 288 287 287 288 287 286 286 285 286 286 286 287 287 287 288 288 288 288 288 287 287 287 287 286 286 285 285 285 286 286 287 287 288 288 288 288 287 287 288 288 288 287 287 287 288
277 273 273 277 278 278 280 279 278 280 279 279 281 281 281 280 280 281 283 282 281 283 284 283 279 282 286 287 288 289 286 288 289 287 286 285 286 285 284 284 286 287 286 287 287 286 285 285 285 285 286 286 286 286 286 287 287 287 286 286 286 286 286 285 284 283 283 283 284 285 285 286 286 286 287 287 287 286 286 286 286 286 286 285 286 286
279 274 281 271 272 273 274 277 276 277 277 278 280 280 280 281 281 281 280 281 280 281 283 283 282 283 289 286 288 288 286 285 285 286 287 285 284 283 284 285 285 286 285 286 286 285 285 285 285 286 285 285 286 285 286 286 286 286 285 285 284 284 283 283 282 282 282 282 283 283 283 284 284 285 285 286 286 285 285 286 286 285 284 283 284 284
278 273 272 270 275 270 275 276 277 276 277 274 277 279 279 278 277 280 279 281 281 281 281 279 278 280 287 285 284 284 284 285 285 284 284 284 284 284 284 285 285 285 286 286 285 285 285 285 285 285 285 285 285 285 285 285 285 284 283 283 282 282 281 281 280 280 280 281 281 282 282 282 282 283 284 285 284 284 284 284 285 284 283 282 282 283
274 273 274 271 274 266 269 273 275 273 274 277 280 282 282 281 282 280 281 281 284 285 280 277 280 286 285 282 284 285 284 284 283 283 284 284 283 284 286 285 285 286 285 285 285 285 284 285 284 285 285 285 285 285 285 284 283 282 282 280 280 280 279 279 279 279 279 279 280 280 280 280 280 281 282 283 283 283 282 283 284 284 282 281 281 281
273 274 269 272 274 267 269 267 272 272 269 275 280 279 281 280 280 280 280 281 283 285 283 283 286 284 281 282 282 283 284 284 285 285 285 286 287 285 283 284 285 284 284 284 284 284 284 285 285 285 284 284 285 284 284 283 281 280 280 279 278 278 278 278 278 278 278 278 279 279 280 279 279 279 280 282 281 280 280 281 282 283 282 280 280 280
273 273 272 269 273 271 270 271 274 269 274 281 279 280 280 282 280 282 282 281 282 284 285 284 284 284 286 286 285 286 285 285 285 285 285 285 285 285 285 284 284 284 284 284 284 284 284 284 284 285 284 284 284 283 282 281 279 278 278 277 277 277 277 277 276 277 277 277 278 278 279 278 277 277 279 280 279 278 278 279 280 282 281 279 279 278
274 275 269 273 266 268 271 270 267 268 273 279 282 280 280 279 280 281 281 283 283 283 285 284 286 287 287 286 286 285 284 285 285 284 284 285 285 285 284 283 283 284 283 284 284 284 284 284 284 284 284 284 283 281 280 279 278 277 277 277 276 276 276 276 276 276 276 276 277 277 278 277 276 276 277 277 277 277 277 277 279 279 279 279 278 278
278 275 272 273 269 271 266 267 276 276 282 282 283 280 279 281 279 281 278 282 279 283 284 285 286 286 286 285 286 284 282 282 282 284 284 283 283 284 284 284 284 284 284 284 285 284 285 284 284 283 283 282 281 279 279 278 278 277 277 276 276 277 276 276 276 275 275 275 276 276 276 276 275 275 276 276 275 275 275 276 277 277 278 277 277 277
277 277 273 276 274 270 271 267 268 269 268 273 277 280 281 280 281 280 281 280 281 281 285 285 284 285 284 283 282 281 283 283 282 281 282 282 283 283 283 283 284 284 284 284 284 284 283 283 282 281 281 280 280 280 280 279 279 278 277 277 277 277 276 276 275 275 275 275 275 275 275 275 274 274 275 275 274 274 274 275 275 275 276 276 276 276
272 273 273 277 271 269 269 268 265 266 272 276 282 284 283 280 280 278 279 277 280 280 283 285 284 283 282 282 283 283 285 281 281 280 282 281 281 282 281 282 282 282 282 282 283 283 283 282 281 280 280 279 279 280 280 279 278 278 277 277 277 276 276 275 275 275 274 274 275 275 274 274 274 273 274 274 273 274 273 273 274 274 275 275 275 275
272 268 268 272 269 268 266 267 270 268 272 279 280 278 280 280 281 282 274 272 282 282 283 284 283 283 282 281 282 283 283 281 280 282 281 281 280 279 279 279 280 280 281 282 283 284 283 282 280 279 279 279 279 280 279 279 278 278 277 277 276 275 275 275 275 275 275 275 274 274 273 273 273 273 273 273 273 273 273 273 273 273 273 274 274 274
270 270 270 275 270 271 277 271 265 272 278 280 280 279 280 280 283 272 274 277 282 281 283 282 282 287 283 282 283 285 281 281 282 281 280 279 277 277 277 277 277 278 279 282 284 285 283 282 280 279 279 279 280 280 280 279 278 277 277 276 275 274 275 275 275 275 275 274 273 273 272 272 272 272 272 272 272 272 272 272 272 272 272 272 272 272
264 263 267 266 268 274 271 270 273 273 278 283 280 284 282 282 274 275 281 279 280 283 282 283 286 284 282 282 281 281 281 282 282 280 278 276 275 275 275 275 276 276 277 279 281 282 279 277 277 277 277 278 278 278 278 278 277 277 276 275 274 274 275 275 274 274 274 272 272 272 271 271 271 272 272 272 271 270 270 271 271 271 271 271 271 270
275 273 269 270 268 265 265 267 268 269 277 283 284 283 283 279 280 281 280 284 282 282 283 282 284 284 282 281 280 281 281 280 278 276 275 274 274 274 274 275 275 275 276 276 277 279 279 276 275 275 275 276 276 276 276 275 275 276 275 273 273 274 274 274 273 272 272 271 270 270 270 270 270 270 271 270 270 270 269 270 270 270 270 270 269 269
278 273 264 265 274 272 270 269 273 281 279 285 288 284 284 285 284 282 282 284 282 281 281 281 281 281 282 282 281 281 280 277 275 274 275 275 275 275 276 276 276 276 277 277 277 277 277 276 276 275 275 275 276 276 275 275 274 275 274 273 273 273 272 272 271 270 270 269 269 269 269 269 269 269 269 269 269 269 268 268 269 269 269 269 268 268
280 280 277 275 276 276 274 278 282 279 280 286 286 285 283 282 282 283 282 282 283 283 280 281 281 281 282 282 281 281 280 278 275 275 275 275 276 275 275 275 275 275 276 276 276 277 276 275 274 274 274 274 274 275 275 274 274 274 272 272 271 270 269 269 269 268 268 267 267 268 267 268 268 268 268 268 268 267 267 267 268 267 267 268 267 267
278 281 278 279 278 279 281 283 284 283 281 283 284 283 282 282 281 281 282 281 280 281 281 282 282 282 282 283 282 282 281 278 276 276 276 275 274 274 274 274 274 275 275 276 276 276 274 273 273 272 272 272 273 273 274 274 274 271 271 271 269 268 267 267 266 266 266 266 266 266 266 266 266 267 267 267 267 267 267 266 266 266 266 266 266 266
279 278 281 279 277 279 280 282 284 286 284 283 283 282 281 281 281 280 280 281 281 280 280 280 282 282 282 282 282 281 280 278 276 276 275 274 274 273 273 273 273 273 273 273 274 274 272 271 271 271 271 271 272 273 274 273 272 271 270 267 267 266 265 265 265 264 264 264 265 265 265 264 265 265 265 265 265 265 265 265 265 265 264 265 264 264
280 280 280 282 279 282 284 281 281 280 282 282 283 283 281 280 279 279 279 279 279 278 279 280 281 282 283 282 282 279 277 277 275 275 274 274 274 273 273 272 272 272 272 273 273 273 271 270 269 270 270 270 271 272 273 272 269 268 267 266 265 264 263 263 263 263 262 263 264 263 264 264 265 264 263 264 263 263 263 264 264 263 263 263 264 263
281 282 277 279 281 283 283 282 281 282 283 281 281 282 282 279 278 277 277 277 277 277 277 277 279 280 280 279 278 277 276 276 276 275 274 274 274 274 273 272 272 271 271 271 272 272 270 269 269 270 270 270 271 271 272 270 268 267 265 264 263 262 261 261 262 262 261 262 262 262 263 263 263 262 262 262 262 263 263 263 262 263 263 265 266 264
280 281 280 279 280 279 281 283 283 281 284 284 279 281 279 280 278 277 277 276 277 276 277 276 276 277 277 277 277 276 275 275 275 275 275 275 274 274 274 273 272 272 271 271 272 272 271 270 268 268 269 269 270 270 270 268 267 265 264 263 262 261 260 260 260 260 260 261 260 261 261 261 261 261 261 261 260 261 261 264 265 265 263 262 264 264
284 284 282 283 283 282 287 283 287 288 285 284 282 280 279 278 278 277 276 276 276 277 277 276 276 276 276 276 278 276 276 275 275 275 275 275 274 275 274 274 273 272 271 270 270 270 271 270 268 268 268 268 268 268 269 267 265 263 262 261 261 260 259 259 259 259 259 260 259 261 260 260 260 260 260 260 260 259 259 259 260 264 265 263 262 262
Wind_Speed
1 6 3 2 1 2 2 2 1 0 1 2 2 1 3 2 6 3 2 2 0 2 4 4 4 6 13 12 12 6 3 3 5 7 7 6 5 5 5 4 3 3 4 1 3 2 1 2 3 3 2 3 2 2 2 2 4 4 5 2 6 5 3 3 4 3 3 4 4 2 2 4 4 4 3 3 4 3 4 4 4 4 4 3 2 1
5 7 1 3 2 2 2 1 0 1 2 1 2 1 4 3 3 2 0 2 3 4 4 2 6 11 10 9 8 4 2 4 6 6 7 8 5 5 5 5 5 5 4 2 1 2 1 1 2 1 2 1 1 4 3 4 6 5 3 4 7 4 4 4 4 5 2 3 3 3 5 4 4 4 4 5 3 3 3 4 4 4 4 4 4 2
8 4 1 2 1 0 1 1 0 1 1 2 2 3 0 2 5 5 1 4 3 3 7 3 7 12 11 9 8 2 3 2 5 6 5 5 6 5 5 5 5 2 2 1 3 2 3 3 3 2 3 3 4 3 4 4 4 5 5 5 5 5 4 4 4 3 4 4 4 3 4 3 4 3 3 3 5 3 4 4 4 4 4 4 4 3
4 1 2 1 1 1 1 4 3 4 5 2 1 1 3 1 3 3 1 5 5 0 3 4 7 11 8 5 3 1 1 2 2 4 5 5 5 5 5 5 4 4 4 4 3 1 2 1 3 3 4 5 3 4 5 5 5 5 4 5 5 6 4 4 4 4 5 4 3 2 2 2 2 4 3 4 5 5 4 6 4 4 4 4 5 4
1 0 0 2 2 1 0 3 3 1 1 0 1 1 0 1 1 2 5 6 6 1 1 5 2 5 3 4 6 2 3 1 3 2 2 4 3 3 3 2 3 5 5 4 2 2 3 1 4 5 6 3 4 5 6 6 5 4 6 6 5 5 5 4 4 5 4 1 2 1 2 1 3 2 3 4 6 4 3 4 4 6 4 4 5 4
3 1 1 2 2 2 0 1 1 2 1 2 2 1 0 1 1 3 4 7 5 1 1 4 2 1 4 4 3 5 6 3 2 2 4 4 4 3 3 4 3 3 3 4 3 3 3 3 4 4 5 5 5 6 7 6 5 4 6 5 4 4 4 5 5 4 2 4 4 3 3 5 4 6 5 4 4 5 5 5 4 5 3 4 4 4
2 2 2 0 1 2 3 1 0 1 1 1 1 3 1 1 1 1 5 2 1 2 3 2 1 0 4 2 3 4 6 6 6 1 5 4 4 4 4 4 4 4 4 4 4 5 4 4 3 4 5 6 5 8 6 4 5 4 5 5 4 4 4 4 4 2 1 3 2 4 5 4 5 5 6 3 3 5 6 4 6 6 5 3 4 4
1 1 3 3 1 1 0 1 1 3 1 2 0 2 1 1 1 0 2 1 1 2 4 5 3 1 1 3 2 4 4 5 3 3 4 4 4 4 4 4 5 5 5 5 5 5 5 4 4 6 6 5 8 6 3 4 4 5 6 5 5 4 4 4 3 2 2 4 4 4 4 4 6 6 8 6 5 3 4 6 7 5 6 4 3 4
1 1 1 1 3 1 1 1 1 1 1 1 0 2 0 1 1 2 1 1 1 1 1 3 4 2 2 4 3 3 1 3 2 2 3 3 3 4 5 6 5 6 6 5 5 5 6 6 6 6 6 5 5 5 5 5 4 3 3 3 3 4 4 4 2 3 3 3 4 5 4 5 6 5 7 6 5 6 4 5 6 5 5 5 4 4
1 1 1 2 0 1 2 1 2 3 1 1 1 2 3 3 3 1 1 2 2 1 1 2 3 0 4 5 4 2 1 0 1 1 2 2 2 2 2 3 4 5 5 4 6 4 4 4 5 4 4 6 5 4 4 4 4 4 4 3 3 5 3 3 4 2 4 4 3 4 4 5 8 5 6 4 7 6 4 5 6 5 6 6 5 5
0 3 4 3 0 0 0 0 1 0 0 0 2 1 1 2 1 2 4 1 1 1 1 1 2 1 1 2 5 3 2 4 3 1 2 3 2 1 1 2 2 2 3 3 3 4 4 5 4 3 4 5 5 5 4 4 4 4 4 2 3 5 4 3 4 3 5 4 3 4 5 5 7 7 5 7 8 6 5 5 7 6 6 5 6 5
1 1 0 0 1 1 1 0 1 0 1 1 1 1 2 1 2 1 2 3 1 2 2 2 1 2 1 2 5 8 3 3 9 5 4 2 2 1 0 1 1 1 2 2 1 2 4 5 4 5 5 6 6 6 7 6 5 5 4 3 3 6 4 4 4 3 4 3 4 4 4 6 7 5 5 6 8 7 6 6 7 7 6 7 6 5
0 0 1 4 1 3 0 1 1 3 3 2 2 3 1 4 3 2 3 1 1 1 0 1 2 1 4 6 1 1 4 3 5 7 7 6 4 2 1 0 1 2 2 1 1 2 3 2 3 4 5 6 6 6 6 6 5 5 5 4 4 6 5 5 5 4 4 4 4 4 4 5 5 5 5 6 7 6 6 6 7 7 7 7 7 6
1 0 2 2 1 1 1 0 1 0 1 2 0 1 2 1 2 1 2 1 4 3 1 1 2 2 4 7 6 5 5 5 5 5 4 7 5 4 2 1 2 2 1 1 1 1 1 2 3 2 3 4 4 5 5 5 5 5 5 4 4 5 4 4 5 5 5 5 4 3 4 4 4 5 5 6 6 7 6 6 6 6 6 7 7 8
0 1 2 1 0 1 0 1 0 1 0 1 1 0 1 4 1 1 1 1 1 3 3 3 0 4 3 3 1 7 3 3 2 2 2 2 2 1 2 3 2 0 1 1 2 2 2 2 2 3 3 4 4 4 4 4 5 5 5 6 6 6 7 6 6 5 5 6 5 4 3 4 3 5 5 6 5 6 6 6 5 6 6 6 7 7
1 3 0 1 1 1 2 1 1 1 0 1 2 2 3 0 3 0 1 1 1 2 4 1 3 3 1 2 4 2 1 0 1 0 1 0 0 1 1 1 0 0 0 1 2 2 3 2 3 3 4 3 4 4 4 5 5 5 5 5 4 4 5 5 5 6 5 6 6 5 5 5 4 4 4 5 5 5 4 6 5 7 6 6 6 7
1 1 0 6 3 1 0 0 0 0 1 1 0 0 0 1 5 5 1 0 1 3 5 0 6 4 8 2 1 3 0 1 1 1 0 0 0 1 1 0 0 0 0 0 1 1 2 3 3 2 3 4 4 5 5 4 4 4 5 5 6 6 5 6 5 5 5 6 6 7 6 6 6 6 6 7 7 7 5 4 5 5 6 6 6 7
1 2 0 2 0 0 0 1 0 0 1 0 0 1 0 1 1 1 1 2 4 1 4 1 1 7 4 2 3 1 1 4 2 1 1 0 0 2 1 1 2 1 1 2 1 1 1 1 1 3 3 3 3 3 5 5 4 3 3 4 5 6 7 7 6 7 6 6 7 7 8 8 7 7 7 7 7 7 7 7 5 5 6 6 7 5
1 2 1 1 1 3 2 0 1 0 0 0 1 0 0 0 0 2 3 1 1 2 4 6 2 5 4 4 0 4 6 6 5 2 1 3 1 2 2 2 2 3 3 1 1 2 2 2 3 3 3 3 3 3 3 4 5 5 6 5 4 6 6 5 5 5 7 7 6 6 7 7 8 8 7 7 7 6 7 8 8 7 7 7 6 7
1 1 2 0 2 1 1 1 1 1 1 1 0 0 0 1 1 1 1 2 4 2 3 4 4 3 5 3 7 6 8 7 6 3 5 5 5 4 4 4 4 4 3 1 1 1 1 1 2 2 2 4 4 5 5 5 5 7 6 7 8 8 8 9 10 8 9 9 8 9 8 9 7 8 8 8 8 9 9 8 8 9 9 9 8 7
1 0 1 0 2 1 1 1 3 5 3 1 1 1 1 1 1 2 1 0 1 2 3 1 5 4 4 6 5 5 6 8 8 9 6 6 5 5 5 5 5 4 3 2 1 0 0 1 2 2 2 3 3 3 5 6 6 6 7 7 7 9 9 10 9 9 8 8 9 9 10 9 9 11 9 9 10 10 10 10 10 10 8 7 9 8
1 0 2 2 1 2 3 0 1 2 0 1 3 2 4 2 1 1 4 1 1 1 2 2 7 8 12 2 5 3 4 6 7 8 8 6 5 5 4 5 5 4 4 2 1 1 0 1 2 3 4 5 7 8 8 6 7 7 7 6 7 8 9 8 9 8 7 7 8 9 10 10 9 9 10 11 11 12 11 10 11 10 10 10 10 9
1 2 1 3 2 1 1 1 1 1 1 0 2 1 3 1 4 3 0 2 1 0 3 1 0 9 5 2 3 4 3 6 8 6 7 6 5 5 4 5 5 5 3 2 1 1 0 1 2 2 5 6 7 6 6 5 6 6 6 7 7 9 9 7 7 6 7 8 9 10 9 9 10 11 11 12 11 12 12 11 10 10 10 11 10 9
4 0 1 4 4 4 2 0 1 1 0 1 1 0 1 1 2 3 2 4 4 0 0 1 2 9 5 2 4 3 2 1 1 4 5 4 3 4 4 3 4 4 3 1 2 0 1 2 4 6 6 7 6 5 5 5 6 7 8 8 8 10 9 8 7 7 8 8 9 9 10 11 10 12 12 12 11 12 12 11 10 10 11 10 9 11
1 2 2 2 3 3 1 1 1 0 1 2 2 3 2 1 2 2 4 0 0 7 7 7 6 4 3 3 3 1 3 2 1 2 4 3 4 4 3 4 4 4 2 1 1 2 4 6 7 5 5 5 5 5 6 7 7 8 8 8 8 7 7 7 7 8 9 9 11 11 11 11 10 11 11 11 10 11 11 11 10 10 11 12 12 11
1 2 3 1 1 1 2 2 1 1 4 3 1 0 2 5 5 2 1 1 2 3 5 3 6 9 7 5 2 0 0 1 2 2 2 4 4 4 4 4 5 3 2 0 1 5 6 5 5 5 5 5 5 6 6 6 7 7 8 9 6 8 8 8 7 8 9 9 10 10 11 10 10 10 10 10 10 10 10 10 10 10 10 10 12 12
1 0 1 5 6 8 8 3 2 2 2 1 1 3 4 2 1 3 5 4 8 4 7 10 6 6 12 6 4 4 3 4 3 3 3 4 5 5 5 5 4 3 0 1 2 3 6 7 6 5 5 5 5 6 6 6 7 7 7 9 8 7 7 8 8 9 10 10 9 10 11 11 11 10 10 10 10 9 9 10 9 10 10 9 9 10
2 1 5 4 6 7 5 2 2 3 3 4 3 5 4 6 6 8 9 9 6 8 9 6 6 5 17 8 6 4 2 3 5 6 6 5 5 4 5 4 4 1 1 3 5 7 7 5 5 5 5 6 6 6 7 6 7 8 8 9 8 8 8 8 9 9 9 9 10 11 10 10 9 10 10 9 9 10 10 10 10 10 9 9 11 10
3 3 2 3 6 5 5 5 1 1 4 5 5 6 6 7 7 11 12 7 8 7 14 2 5 6 13 11 4 5 4 5 7 9 6 5 5 2 4 4 4 2 2 5 5 7 6 6 5 5 5 5 6 7 6 7 8 8 9 9 8 8 9 8 9 10 10 11 12 11 10 10 9 9 10 10 10 11 11 10 10 10 10 10 10 9
2 4 2 1 4 5 6 5 3 6 3 3 9 10 7 9 14 15 14 7 12 12 13 7 3 12 13 15 11 10 5 8 9 5 3 3 5 2 4 5 4 2 3 6 6 6 5 5 6 5 6 7 6 7 7 8 9 9 9 8 8 9 8 7 9 10 11 13 12 11 11 10 10 10 10 11 12 11 10 10 10 10 10 11 10 10
2 4 4 1 1 5 4 3 2 3 3 6 11 9 8 11 11 12 7 7 5 11 15 14 12 16 18 4 9 7 4 2 4 5 7 5 3 3 4 5 5 2 4 6 6 6 6 6 6 7 8 7 8 7 7 9 8 8 9 9 9 10 9 9 11 12 12 12 11 11 11 11 11 10 11 10 10 11 11 11 10 10 11 12 11 11
0 2 2 1 1 5 2 2 0 1 2 5 12 14 11 9 8 9 10 10 9 16 7 1 7 11 18 1 4 4 1 2 4 5 4 3 2 0 3 5 2 4 7 7 6 6 7 8 8 9 9 9 8 8 7 9 9 10 10 9 10 9 9 11 11 11 11 10 11 11 12 11 11 12 11 11 12 11 11 10 10 10 10 12 12 12
4 4 3 1 1 6 3 2 2 3 6 9 15 18 20 15 13 1 5 4 16 13 6 7 12 14 4 3 2 4 4 4 3 4 4 4 4 2 2 1 6 8 7 7 7 8 8 9 8 9 9 8 8 9 8 8 11 11 9 10 8 8 10 10 10 11 11 11 11 12 12 11 12 11 11 11 11 11 11 11 11 11 11 13 11 10
2 4 2 2 2 2 2 3 1 3 3 11 7 1 5 8 13 15 11 15 12 11 10 8 12 1 0 1 5 5 5 4 2 4 3 5 1 2 3 6 8 8 8 8 8 9 8 8 8 8 8 8 8 8 8 9 10 8 7 8 8 10 10 11 11 11 11 11 11 11 10 11 11 11 11 11 11 11 12 12 12 10 9 10 11 11
4 3 2 1 1 2 1 1 5 7 14 7 2 2 2 1 7 15 14 8 9 14 11 7 10 8 11 9 7 9 2 3 8 8 9 7 2 6 10 8 8 8 9 9 10 8 7 8 8 9 9 8 8 7 8 9 8 8 10 9 10 10 11 11 11 11 10 10 10 10 10 11 11 11 11 11 12 12 12 12 12 11 10 10 11 11
6 6 3 0 2 1 1 1 1 10 7 7 10 1 3 3 2 1 7 13 12 15 18 15 16 15 10 7 7 2 4 7 8 9 9 10 8 7 11 9 7 8 9 7 9 7 8 8 9 9 9 7 8 8 8 8 7 9 9 8 10 9 10 9 10 10 9 10 10 10 10 11 11 11 10 10 11 11 12 12 12 12 11 10 10 10
7 3 2 2 1 4 4 5 11 7 14 8 8 2 6 6 6 6 6 10 6 10 12 13 16 12 9 8 7 3 6 5 6 7 8 8 8 8 10 10 8 9 9 8 8 9 8 9 10 9 8 8 8 8 7 6 7 9 8 9 9 9 9 9 10 10 9 9 10 10 10 10 11 10 10 10 11 11 11 12 12 11 10 11 10 10
1 5 3 4 4 5 3 4 5 3 5 9 8 3 2 2 3 4 3 9 3 5 11 13 8 10 9 8 3 3 6 4 2 1 3 4 5 9 10 10 8 8 8 9 8 9 9 8 8 8 9 9 10 8 7 8 8 9 10 9 8 9 9 10 10 9 9 9 9 9 10 10 10 10 10 10 11 11 11 10 9 10 10 11 11 10
4 4 2 7 3 3 1 4 5 5 9 8 2 1 2 1 4 3 2 7 6 6 8 10 9 8 7 3 4 6 5 5 6 5 3 2 3 4 10 8 8 8 8 7 8 10 9 9 9 9 9 9 10 9 8 8 9 9 9 8 8 8 9 9 9 9 9 9 9 9 9 10 10 10 9 10 10 10 11 11 11 10 10 9 9 9
3 1 1 1 3 4 4 3 9 5 6 1 3 2 1 3 1 3 4 7 2 2 7 7 7 6 4 4 7 6 8 6 8 7 6 5 4 4 6 8 8 8 8 7 7 8 9 9 10 10 10 10 9 7 6 5 7 8 8 8 8 10 10 9 8 8 7 8 8 8 9 9 10 10 9 10 11 11 11 10 10 11 10 9 8 9
2 1 2 11 5 5 6 7 4 7 7 9 7 3 2 2 0 1 9 5 1 2 6 7 5 2 4 7 6 7 2 0 3 14 11 7 9 8 7 6 7 6 7 7 8 9 10 9 10 10 9 8 7 6 5 5 7 8 9 9 9 10 9 7 7 7 7 8 8 9 10 9 9 11 9 10 10 10 9 9 10 11 11 11 9 9
1 2 1 3 3 10 7 6 10 7 9 11 4 8 5 3 3 11 8 1 4 5 4 4 5 1 4 3 3 4 7 10 13 11 10 8 9 8 7 7 7 8 7 7 8 9 11 10 10 10 10 9 9 8 8 7 8 9 9 9 11 9 7 7 8 7 7 9 9 9 10 10 11 9 9 9 10 10 10 9 10 10 11 10 9 12
11 8 7 7 3 3 1 1 5 7 5 5 8 3 0 4 8 5 3 0 1 4 7 1 3 4 6 6 5 13 12 10 11 11 10 9 9 9 8 7 8 8 8 8 9 8 9 9 10 10 9 7 8 8 8 8 9 9 9 11 10 7 7 7 8 8 8 9 10 10 11 10 11 10 9 10 10 11 11 10 11 11 10 11 12 11
7 4 2 5 7 8 8 8 9 12 3 9 16 10 9 11 1 3 5 2 1 2 4 4 0 4 5 14 14 10 12 14 11 11 11 9 9 8 8 8 9 9 9 8 8 7 8 9 9 9 9 8 7 8 8 8 7 9 10 11 8 8 8 8 9 9 9 10 11 10 10 10 10 10 10 11 11 10 11 11 11 10 10 10 10 11
11 9 9 7 7 8 10 12 11 5 4 7 1 0 0 1 3 2 4 4 6 2 2 4 3 3 7 13 12 15 12 10 12 10 11 9 9 9 9 9 8 9 8 8 8 8 8 8 8 7 8 8 7 6 6 5 8 10 11 9 9 9 9 10 10 10 9 10 10 9 9 9 10 10 9 9 10 9 10 10 10 10 9 10 10 10
3 4 1 1 6 5 7 8 1 1 3 5 2 1 0 0 2 1 6 5 1 2 3 6 5 7 8 11 16 7 11 13 12 10 11 11 10 10 9 9 8 8 8 7 8 8 7 7 7 7 8 8 8 6 6 7 10 11 10 9 9 10 10 9 9 8 8 8 8 8 8 8 8 8 8 9 9 9 9 10 10 9 9 10 9 9
4 2 2 3 2 2 10 1 11 14 5 2 5 2 2 2 1 1 3 3 4 3 4 3 5 7 9 6 13 15 14 12 12 11 10 10 10 9 9 9 9 8 7 8 7 7 6 6 7 7 7 9 8 7 8 11 10 10 9 10 9 10 9 8 8 7 7 8 8 8 8 8 8 8 8 8 9 8 8 9 8 9 10 9 9 8
6 4 4 9 4 9 11 2 2 3 2 2 3 5 3 2 4 3 3 4 6 3 3 4 4 7 6 9 11 15 13 11 13 12 11 10 10 9 9 9 9 8 7 7 5 7 8 8 7 7 7 8 8 7 8 9 10 10 10 10 9 8 8 8 8 7 7 8 7 7 7 7 11 10 8 9 9 8 9 8 9 9 8 9 9 10
4 6 6 4 7 11 7 4 2 1 2 3 1 2 4 7 7 7 6 6 6 8 7 7 4 4 6 10 11 13 13 10 10 11 12 10 10 9 9 9 9 8 7 6 5 4 8 7 7 7 7 7 6 6 7 9 9 10 11 9 9 9 9 8 8 7 7 7 7 7 7 7 8 8 9 8 8 8 8 9 8 10 9 9 9 11
5 9 3 2 7 9 13 10 9 5 11 8 8 8 7 7 9 10 8 7 7 8 8 11 8 7 7 8 9 10 13 11 10 11 11 10 10 11 10 10 9 8 7 6 5 5 7 8 7 6 6 6 6 6 6 8 9 9 9 9 8 8 8 7 6 6 6 7 7 7 7 8 8 8 7 8 9 9 7 10 14 12 10 10 16 20
14 13 8 12 12 16 14 6 13 13 7 3 9 9 8 8 9 11 10 10 8 6 8 11 12 9 8 7 5 10 11 12 12 11 11 10 9 9 9 9 8 7 7 6 6 5 5 6 7 5 5 6 5 5 4 8 8 9 9 8 8 7 5 6 4 5 6 6 6 8 8 7 7 7 7 8 9 8 10 10 9 12 16 13 15 18
Wind_Direction
91 77 85 148 203 217 260 190 185 215 131 100 94 115 217 225 283 276 264 278 301 292 253 239 266 278 285 287 292 291 260 216 251 257 255 257 264 270 273 262 268 267 234 263 260 272 277 225 215 222 203 219 248 254 245 257 269 256 241 264 264 256 270 256 270 282 254 267 295 325 288 255 269 274 282 277 280 263 246 253 252 255 257 257 271 246
69 70 326 222 208 195 229 226 283 70 100 155 116 155 277 195 269 223 148 353 326 52 287 7 320 286 279 294 299 314 143 232 223 240 254 253 240 251 248 264 248 239 298 298 255 277 312 291 275 282 241 187 203 259 241 237 239 244 259 241 252 271 265 242 222 231 218 207 197 218 252 256 270 285 293 300 284 252 264 253 247 248 254 258 252 256
38 112 179 226 221 193 12 35 240 194 138 57 176 202 309 268 258 294 306 353 333 27 265 352 342 298 302 303 311 312 188 246 221 203 217 207 244 248 249 252 266 305 256 281 271 275 275 271 272 273 272 262 233 268 253 262 283 270 259 246 249 258 255 252 234 211 234 239 249 200 248 204 278 248 261 264 273 287 281 271 254 253 254 255 266 248
54 284 244 218 65 39 14 24 111 71 65 85 55 96 233 274 26 322 311 355 332 117 269 338 325 294 309 302 305 326 194 290 304 231 228 193 211 230 238 226 232 241 242 233 227 264 309 292 272 288 277 251 275 275 274 260 251 264 263 257 253 256 249 254 245 226 240 241 256 276 258 286 218 267 311 295 288 293 304 286 267 257 245 246 248 255
137 228 283 67 57 85 176 352 88 131 275 3 117 133 189 341 310 194 273 327 298 308 168 307 329 313 337 357 336 312 327 315 333 345 278 275 252 265 290 311 219 217 205 226 267 286 296 269 234 227 239 285 267 256 249 251 242 235 241 245 239 248 246 246 253 241 243 264 291 315 321 356 335 335 344 344 312 302 291 300 298 264 234 236 239 245
30 324 68 47 42 59 103 348 34 115 237 322 231 174 156 161 241 318 328 0 17 307 12 24 40 306 312 303 263 289 348 351 329 352 266 281 313 329 301 279 298 275 225 201 215 225 244 250 279 283 270 263 259 258 248 232 241 236 254 256 257 258 259 252 253 245 226 225 227 267 291 299 311 301 307 292 266 300 306 275 282 309 264 246 249 250
157 352 87 158 105 63 63 141 235 147 184 111 246 165 138 137 135 28 353 25 8 88 332 19 122 268 330 359 312 311 336 310 316 323 286 302 295 300 260 271 270 264 274 259 260 266 265 252 252 273 271 248 250 254 250 265 252 251 257 257 251 244 252 256 258 253 208 250 244 229 236 240 255 263 278 247 261 255 273 300 298 287 305 263 248 262
55 3 39 37 66 63 37 19 198 131 104 260 100 135 100 80 63 26 90 73 239 292 297 43 70 142 315 294 268 297 324 326 330 322 310 295 292 279 271 254 256 257 240 236 242 246 245 249 221 235 244 248 231 252 299 272 267 248 247 243 246 253 262 265 278 273 222 230 243 249 254 249 251 237 256 271 279 270 278 299 284 293 290 298 266 271
109 335 68 30 66 72 227 211 172 153 187 230 195 147 83 135 166 115 68 25 242 332 289 319 343 90 265 266 307 356 103 354 347 325 336 321 299 273 269 261 259 249 242 222 232 235 232 231 239 235 256 262 276 269 263 261 266 272 271 272 287 281 273 290 302 281 267 234 231 231 245 268 255 249 260 283 286 287 294 296 288 289 283 290 284 258
339 125 212 125 124 276 243 264 196 146 12 274 172 84 69 76 75 82 73 29 343 55 220 305 345 149 291 274 347 334 103 291 219 53 350 314 305 294 285 281 263 262 264 240 235 262 288 276 274 268 279 295 282 304 298 294 302 298 301 290 300 285 296 302 306 290 280 251 247 246 249 254 276 274 282 296 291 293 305 295 289 288 291 287 294 280
238 305 165 96 203 211 177 291 173 174 212 174 67 63 4 38 57 33 69 82 44 50 267 258 318 98 295 265 204 125 206 191 205 296 289 300 323 312 280 265 271 281 284 295 304 282 266 265 273 320 311 292 313 319 328 319 322 308 314 322 318 289 316 317 303 304 279 274 235 244 248 250 267 278 290 305 299 300 309 295 291 291 287 292 283 290
8 5 82 258 110 98 118 76 17 55 34 111 39 98 53 9 12 47 349 33 93 269 258 306 296 326 159 296 280 240 290 186 157 182 188 207 227 244 304 327 313 302 318 321 322 322 335 346 343 358 345 339 324 340 351 345 343 347 333 359 346 313 319 323 321 317 291 284 266 249 255 259 258 271 281 282 286 294 296 293 292 295 303 292 289 287
328 215 218 339 199 142 26 91 327 21 14 59 59 36 98 274 35 267 13 292 204 182 230 351 346 22 239 220 221 259 243 223 221 168 182 189 207 240 273 296 321 311 323 339 340 335 344 347 317 332 330 343 350 339 332 337 337 343 353 18 8 318 330 328 328 328 315 311 284 264 261 261 270 272 265 269 276 281 284 289 292 298 296 298 306 287
277 96 355 278 91 244 129 124 312 26 1 71 134 128 71 29 38 261 276 250 308 306 267 11 309 249 250 288 229 228 238 209 209 222 187 168 184 199 213 292 310 326 311 311 321 330 325 324 317 312 318 330 331 339 340 339 359 351 6 9 23 321 325 326 339 340 337 323 302 279 260 264 267 272 268 266 266 279 275 272 275 278 278 287 278 288
3 339 248 143 222 112 134 178 177 230 254 257 169 117 188 136 161 230 229 264 216 215 272 288 55 233 96 193 282 225 249 285 253 246 249 244 214 210 260 282 296 317 40 2 31 18 356 346 343 343 345 348 349 352 355 355 359 9 11 9 5 353 346 353 341 342 343 333 329 321 294 281 277 272 280 276 267 276 283 281 276 277 278 271 279 277
200 208 287 285 198 128 112 231 128 99 3 231 179 99 65 339 142 134 208 158 250 335 346 232 209 196 103 299 295 306 284 234 3 346 26 117 13 19 72 21 331 316 100 29 46 24 13 350 348 6 9 4 8 6 10 16 9 17 5 0 3 353 332 342 348 348 346 337 334 337 339 328 313 300 295 295 289 280 271 281 279 283 284 276 280 283
15 278 295 318 45 107 202 220 3 149 184 222 92 262 189 144 96 99 56 16 86 51 254 193 311 313 296 341 341 346 43 269 340 315 30 244 336 65 78 301 260 244 331 344 79 37 1 6 6 356 359 14 18 21 14 0 3 1 0 9 5 358 356 2 357 353 350 347 356 350 350 348 345 339 331 320 315 311 306 289 282 283 285 291 286 284
162 242 296 83 244 268 222 146 172 255 184 53 50 224 172 163 131 131 223 337 58 117 263 30 269 305 20 245 322 76 144 243 268 256 294 283 83 94 135 198 205 211 248 285 287 286 280 274 315 349 2 17 10 5 6 2 352 358 9 22 9 7 8 358 2 1 2 3 3 357 357 354 352 347 339 334 329 327 329 322 315 306 307 301 296 293
107 339 306 228 207 263 13 53 346 286 211 174 189 303 127 325 41 332 93 4 345 321 289 316 280 246 182 243 220 229 194 215 230 239 144 112 128 178 194 224 250 273 287 285 44 11 3 357 351 348 346 334 358 359 2 349 3 14 18 17 34 17 6 0 2 3 8 19 13 8 359 358 354 357 352 348 344 344 344 339 335 331 318 313 313 311
23 149 293 278 143 357 8 86 273 253 1 54 10 352 328 131 179 95 210 173 114 270 38 290 28 256 213 219 192 217 202 193 184 193 168 187 196 203 218 229 237 239 238 233 345 343 312 311 314 333 346 358 351 350 353 3 16 27 16 29 22 23 23 22 20 16 17 9 15 8 10 9 7 4 4 358 0 359 359 348 344 341 341 336 325 322
117 110 257 286 289 331 257 203 213 157 162 320 49 327 346 40 218 101 11 107 191 178 181 218 335 283 266 213 163 215 205 198 175 171 188 202 215 225 216 210 221 235 239 242 232 255 304 319 344 355 352 355 8 26 32 36 41 35 34 33 31 39 29 28 21 21 17 12 13 14 14 8 7 5 5 5 9 9 3 358 355 353 342 337 345 340
94 53 208 295 28 215 221 278 193 161 166 179 158 200 174 119 126 109 274 16 68 78 235 124 257 268 271 181 200 228 235 189 207 165 185 203 220 223 235 239 218 216 244 234 229 236 258 320 2 10 29 35 43 33 40 37 45 38 38 36 32 36 33 26 21 20 12 15 17 21 15 13 12 12 12 14 15 13 9 6 1 355 353 358 348 350
150 160 96 268 204 210 282 139 194 138 117 177 162 252 152 102 101 100 134 272 39 238 106 156 96 273 244 223 236 233 262 200 187 176 171 206 214 230 237 235 245 232 215 195 216 246 249 345 359 31 58 60 57 52 52 46 48 44 41 37 35 40 29 27 21 18 21 25 28 23 22 21 20 16 17 18 16 13 9 5 3 1 0 359 354 352
100 76 11 289 313 306 333 335 100 114 166 357 248 262 122 196 188 172 173 177 135 109 149 353 235 252 282 292 267 264 271 197 189 180 178 208 252 263 255 260 251 249 256 282 288 296 350 29 66 65 56 53 53 55 51 49 45 42 39 35 33 34 23 24 22 23 31 31 34 30 27 26 20 21 19 19 13 11 7 5 5 1 2 1 357 358
120 294 123 357 358 337 339 356 356 346 72 217 212 213 197 101 81 160 101 48 321 219 169 128 241 281 278 316 323 19 56 103 204 238 184 238 267 259 261 262 254 257 292 312 17 26 51 67 68 73 66 64 63 60 54 50 48 47 40 34 33 30 28 31 25 32 33 33 34 29 28 24 20 21 20 18 14 12 7 7 5 5 4 1 3 1
91 221 115 175 193 291 288 302 264 266 232 229 213 185 231 161 144 123 226 57 183 275 134 169 249 250 272 310 325 303 352 325 292 292 299 209 234 265 277 257 252 252 254 267 13 50 71 87 87 70 63 62 61 64 60 53 51 47 45 36 29 30 30 29 33 36 36 32 31 27 24 20 19 19 18 15 15 12 9 6 8 6 6 5 2 1
162 4 171 157 157 196 204 209 255 99 62 212 231 175 208 187 187 103 101 114 209 206 188 232 183 302 295 230 227 230 285 273 282 276 263 283 281 267 252 267 248 230 217 41 48 89 96 79 76 72 64 67 67 65 60 59 51 49 48 41 34 33 36 30 33 34 35 30 32 27 23 17 16 13 12 12 9 7 7 9 6 8 7 2 4 3
67 308 247 186 222 226 179 187 204 166 234 240 220 253 196 171 176 159 166 220 159 97 268 236 186 220 261 268 160 235 270 303 293 291 294 289 267 254 257 257 263 273 52 66 89 100 104 104 82 72 64 60 64 64 63 58 55 51 47 44 37 35 37 31 37 38 35 32 31 30 22 18 13 13 10 9 9 8 8 6 7 7 3 3 5 4
149 188 260 129 262 250 232 237 213 218 210 231 218 224 205 195 159 194 223 201 149 176 239 240 181 197 252 265 227 201 205 246 260 266 261 259 272 271 275 255 226 188 70 83 98 101 108 102 96 76 63 61 62 64 61 58 53 50 50 48 40 36 33 30 39 36 34 31 30 24 17 13 13 10 11 10 10 11 7 7 5 4 5 5 4 0
116 252 199 182 272 300 269 230 219 203 260 280 248 237 220 181 211 210 227 202 195 233 249 249 209 245 262 269 281 273 218 237 261 285 302 280 259 257 215 224 214 206 91 101 100 105 101 101 89 77 73 63 62 60 55 56 56 52 52 46 42 41 31 35 39 39 32 32 26 19 15 13 11 10 8 10 10 7 4 4 3 4 6 5 2 359
142 274 131 112 23 286 294 350 100 202 201 256 264 253 222 223 230 226 235 238 223 273 262 264 280 284 272 215 256 268 259 275 297 278 258 264 260 209 204 197 208 141 87 106 102 100 97 87 78 74 67 60 53 49 56 61 58 57 52 44 41 38 31 36 39 37 34 29 23 18 16 15 11 7 10 7 7 5 3 2 1 4 6 3 0 359
66 252 46 70 312 297 349 43 10 44 195 233 269 266 238 213 230 219 205 211 170 227 221 186 256 252 266 149 242 277 322 241 225 252 269 279 280 217 180 198 172 112 112 110 104 97 82 74 71 66 62 55 52 52 58 62 60 55 48 42 38 35 33 40 39 38 34 29 22 20 18 15 10 9 7 6 7 5 1 358 359 4 5 3 359 358
179 132 153 140 216 262 268 1 17 353 354 309 268 245 233 216 214 223 255 192 210 199 179 200 233 229 232 155 151 258 250 251 256 256 272 283 258 224 203 133 119 107 103 103 92 83 78 74 70 65 61 61 59 67 59 65 63 54 47 45 38 38 41 40 39 35 33 25 24 20 18 14 12 8 6 5 3 1 359 360 359 2 3 4 353 350
118 129 162 181 190 250 293 331 340 42 304 240 231 201 151 183 197 213 231 215 211 161 208 204 234 238 162 147 194 236 227 245 265 303 286 265 226 198 81 103 97 99 91 79 80 82 79 78 73 69 71 74 75 72 72 65 69 65 54 53 45 43 39 39 33 34 28 24 21 16 15 12 10 7 3 1 2 0 0 0 359 356 356 355 352 354
155 128 176 152 132 260 311 330 349 262 241 251 279 200 190 174 178 201 233 234 203 212 242 275 264 253 237 226 227 241 244 41 35 23 0 342 148 122 116 101 94 94 92 91 85 80 83 87 84 80 73 71 71 70 68 63 60 60 51 42 46 40 40 35 34 31 25 22 17 14 14 13 9 4 360 1 2 359 359 357 352 355 355 356 351 350
166 154 171 279 148 52 57 122 231 239 244 277 278 220 193 94 159 164 297 255 219 208 208 227 245 248 254 259 252 228 112 122 74 39 17 21 51 103 107 101 98 98 94 93 97 92 88 82 84 83 82 76 71 68 66 66 61 61 57 49 49 45 41 39 37 31 24 21 16 13 13 12 8 1 360 0 1 359 356 354 351 351 350 349 346 345
159 100 116 230 161 207 202 188 237 316 312 299 285 208 173 188 175 168 240 283 216 198 180 213 233 248 263 261 257 102 149 120 69 31 20 31 46 56 83 90 93 88 93 85 85 87 81 83 82 83 84 79 75 72 68 68 67 65 58 52 45 45 44 38 36 28 21 21 14 14 11 10 7 357 358 359 359 358 354 351 349 349 348 344 343 344
91 170 234 162 253 134 187 304 324 338 270 284 244 277 250 212 156 178 123 285 277 214 196 190 211 231 235 254 282 144 144 82 74 112 16 19 45 77 71 78 76 82 84 90 85 84 85 86 85 78 79 80 75 71 67 64 63 64 59 51 45 43 42 40 33 24 20 19 12 13 9 7 4 356 355 358 358 354 350 347 346 346 347 342 340 341
16 79 134 159 227 72 131 191 222 196 245 213 250 265 290 171 139 142 52 277 266 199 188 175 199 224 202 186 132 132 124 178 228 186 130 83 64 68 91 79 81 82 81 83 91 93 90 85 84 81 75 73 71 62 63 63 65 63 61 53 44 42 40 34 27 18 17 12 8 12 5 4 1 355 353 356 357 350 348 346 345 340 338 339 336 336
64 345 56 212 217 204 146 206 243 202 240 272 228 261 250 156 127 54 325 274 267 206 176 161 188 203 214 160 147 140 158 193 225 189 130 116 97 74 84 92 86 81 78 80 79 89 93 92 83 75 71 68 65 64 62 66 68 68 62 53 46 42 35 26 20 10 11 10 5 8 2 1 359 352 353 353 352 349 347 339 338 339 337 335 335 332
183 269 148 217 194 214 205 261 328 286 264 256 240 225 237 184 100 151 226 231 247 153 171 175 188 191 136 148 164 167 234 220 122 121 126 129 104 86 76 78 78 77 77 76 86 95 93 88 82 78 74 67 64 57 51 60 63 63 61 54 49 41 29 19 14 9 11 10 2 5 0 359 359 349 350 353 348 342 337 339 337 336 338 336 335 334
313 107 312 80 196 210 206 214 242 265 236 219 237 165 158 111 210 216 233 206 147 166 222 181 135 106 119 136 144 102 115 107 106 110 114 111 108 107 98 94 86 74 67 65 70 86 88 79 70 67 62 56 48 45 43 45 57 63 61 53 47 38 19 20 14 8 8 9 359 1 357 357 353 348 350 348 345 342 339 338 338 335 336 333 334 335
187 147 204 180 199 69 94 220 333 291 288 178 132 78 217 178 236 205 169 23 198 163 131 83 121 161 136 84 95 122 120 113 114 116 117 117 112 111 106 98 88 87 80 73 68 69 91 91 83 72 66 55 54 50 49 50 61 68 64 54 45 32 23 18 14 9 6 3 358 0 357 354 349 347 348 345 342 341 336 336 337 337 336 336 335 334
192 152 219 246 181 164 168 176 203 215 222 175 154 181 205 198 197 168 123 117 29 117 124 136 239 209 166 134 139 125 123 120 115 120 116 113 113 109 104 98 95 88 83 77 80 78 81 85 83 77 68 53 47 51 46 54 59 71 64 54 41 29 20 16 11 7 3 4 356 356 353 350 345 345 345 343 340 340 335 338 337 338 336 339 337 333
193 197 173 184 204 157 196 209 230 233 189 214 146 261 266 315 334 215 138 138 161 205 182 137 171 131 157 135 132 133 129 133 130 136 124 127 117 110 100 95 88 87 86 83 80 79 78 80 79 80 72 63 49 46 51 54 69 71 64 50 38 23 20 12 9 2 0 359 351 350 346 344 340 341 342 341 339 340 336 338 339 338 338 337 334 330
288 214 125 105 242 273 277 212 213 292 242 239 70 17 145 251 350 99 138 132 245 228 198 177 156 144 143 141 125 133 132 140 134 129 122 118 113 109 105 100 91 88 88 85 84 79 81 79 78 78 77 65 57 47 51 59 71 67 57 48 34 25 18 10 3 358 355 354 344 346 336 339 336 338 340 341 343 343 340 337 336 334 336 333 331 330
244 158 176 221 263 136 259 127 189 223 203 199 153 83 54 55 53 91 109 110 138 133 94 94 143 143 147 145 132 135 137 138 129 126 123 122 119 116 110 101 93 87 81 80 83 88 73 73 64 57 61 59 43 43 51 68 64 63 58 43 31 23 12 6 1 356 353 348 342 343 338 344 340 340 340 343 344 343 337 339 335 337 334 329 331 329
293 175 178 231 198 209 248 222 280 20 43 105 181 180 165 110 66 45 81 110 113 105 95 104 118 115 127 122 130 129 129 134 131 133 131 129 127 124 116 108 102 92 85 85 80 86 75 60 57 47 51 53 40 37 55 72 66 59 52 41 28 18 9 8 4 356 352 342 346 340 337 342 337 340 339 343 344 340 337 340 338 336 332 333 335 342
192 121 222 182 202 252 289 252 144 279 244 239 233 213 174 155 138 116 120 122 124 109 95 69 58 107 117 125 126 127 124 127 131 131 130 131 130 129 124 119 108 97 87 75 58 73 79 67 54 48 49 48 41 37 57 73 65 58 48 34 24 15 13 4 357 349 346 337 347 336 340 341 339 342 341 336 338 333 336 333 341 333 328 337 350 356
89 217 187 80 253 246 233 226 137 225 255 221 205 190 165 162 145 137 135 128 135 127 125 108 76 62 79 104 125 126 122 127 129 130 127 128 128 128 129 125 119 104 88 74 69 71 86 78 65 48 46 46 38 24 52 76 65 55 48 32 21 17 10 352 348 344 344 340 343 333 341 341 342 340 337 334 329 328 329 338 339 339 342 345 345 346
206 217 149 213 227 242 243 194 187 216 243 246 170 167 158 158 151 145 151 144 140 135 135 124 118 98 84 63 62 117 120 128 131 127 123 124 125 125 126 130 127 116 99 82 71 55 78 87 71 59 41 41 26 7 52 79 62 51 39 32 17 12 358 339 350 347 336 340 340 342 345 339 336 334 333 332 333 336 332 329 338 344 348 354 349 341